When you browse on this site, cookies collect data to enhance your experience and personalize the content and advertising you see.
Visit our Privacy Policy to learn more. By continuing to use the site, you agree to this use of cookies and data.
  • En España
  • Lista de países
  • Para 7 días
  • Temperatura del agua
  • Mapa Satelital
  • El tiempo en el mapa
  • Informadores
  • user-avatar
    Iniciar sesión

    Tiempo cada hora Stara Zagora

    Hoy, 17 Noviembre, Sábado

    Tiempo Temperatura Precipitaciones Viento Presión Humedad
    00:00 +2°C° 0 mm 2 mps 751 mmHg 73%
    01:00 +1°C° 0 mm 2 mps 752 mmHg 74%
    02:00 -1°C° 0 mm 2 mps 752 mmHg 72%
    03:00 -1°C° 0 mm 2 mps 752 mmHg 73%
    04:00 +1°C° 0 mm 1 mps 752 mmHg 73%
    05:00 +1°C° 0 mm 1 mps 751 mmHg 74%
    06:00 +1°C° 0 mm 1 mps 751 mmHg 73%
    07:00 +1°C° 0 mm 1 mps 752 mmHg 73%
    08:00 +1°C° 0 mm 1 mps 752 mmHg 72%
    09:00 +2°C° 0 mm 1 mps 751 mmHg 67%
    10:00 +3°C° 0 mm 2 mps 751 mmHg 63%
    11:00 +4°C° 0 mm 2 mps 751 mmHg 58%
    12:00 +4°C° 0 mm 2 mps 751 mmHg 57%
    13:00 +5°C° 0 mm 2 mps 751 mmHg 56%
    14:00 +6°C° 0 mm 2 mps 751 mmHg 54%
    15:00 +5°C° 0 mm 2 mps 751 mmHg 58%
    16:00 +5°C° 0 mm 2 mps 750 mmHg 61%
    17:00 +4°C° 0 mm 2 mps 750 mmHg 65%
    18:00 +4°C° 0 mm 2 mps 750 mmHg 67%
    19:00 +3°C° 0 mm 2 mps 750 mmHg 70%
    20:00 +3°C° 0 mm 2 mps 750 mmHg 73%
    21:00 +3°C° 0 mm 2 mps 750 mmHg 74%
    22:00 +3°C° 0 mm 2 mps 750 mmHg 74%
    23:00 +3°C° 0 mm 2 mps 750 mmHg 75%

    Mañana, 18 Noviembre, Domingo

    Tiempo Temperatura Precipitaciones Viento Presión Humedad
    00:00 +3°C° 0 mm 2 mps 750 mmHg 75%
    01:00 +4°C° 0 mm 2 mps 750 mmHg 75%
    02:00 +4°C° 0 mm 2 mps 750 mmHg 75%
    03:00 +4°C° 0 mm 2 mps 749 mmHg 76%
    04:00 +4°C° 0 mm 2 mps 749 mmHg 76%
    05:00 +4°C° 0 mm 2 mps 749 mmHg 77%
    06:00 +5°C° 0 mm 1 mps 749 mmHg 77%
    07:00 +5°C° 0 mm 1 mps 748 mmHg 77%
    08:00 +6°C° 0 mm 1 mps 748 mmHg 77%
    09:00 +6°C° 0 mm 1 mps 748 mmHg 77%
    10:00 +7°C° 0 mm 1 mps 748 mmHg 77%
    11:00 +7°C° 0 mm 1 mps 747 mmHg 76%
    12:00 +6°C° 0.1 mm 2 mps 747 mmHg 77%
    13:00 +7°C° 0.1 mm 2 mps 746 mmHg 78%
    14:00 +7°C° 0.1 mm 2 mps 745 mmHg 79%
    15:00 +7°C° 0.5 mm 3 mps 744 mmHg 81%
    16:00 +7°C° 0.5 mm 3 mps 744 mmHg 83%
    17:00 +7°C° 0.5 mm 3 mps 743 mmHg 85%
    18:00 +7°C° 1.2 mm 3 mps 743 mmHg 86%
    19:00 +7°C° 1.2 mm 3 mps 742 mmHg 87%
    20:00 +7°C° 1.2 mm 3 mps 742 mmHg 88%
    21:00 +7°C° 1.4 mm 3 mps 741 mmHg 89%
    22:00 +7°C° 1.4 mm 3 mps 741 mmHg 89%
    23:00 +7°C° 1.4 mm 3 mps 740 mmHg 90%

    Pasado mañana, 19 Noviembre, Lunes

    Tiempo Temperatura Precipitaciones Viento Presión Humedad
    00:00 +7°C° 1.6 mm 3 mps 740 mmHg 90%
    01:00 +7°C° 1.6 mm 3 mps 739 mmHg 91%
    02:00 +7°C° 1.6 mm 3 mps 738 mmHg 91%
    03:00 +7°C° 1.5 mm 3 mps 738 mmHg 91%
    04:00 +7°C° 1.5 mm 3 mps 737 mmHg 91%
    05:00 +7°C° 1.5 mm 3 mps 737 mmHg 90%
    06:00 +7°C° 0.1 mm 2 mps 737 mmHg 89%
    07:00 +7°C° 0.1 mm 2 mps 737 mmHg 88%
    08:00 +7°C° 0.1 mm 2 mps 738 mmHg 87%
    09:00 +8°C° 0 mm 2 mps 738 mmHg 83%
    10:00 +9°C° 0 mm 2 mps 739 mmHg 78%
    11:00 +10°C° 0 mm 2 mps 739 mmHg 74%
    12:00 +10°C° 0 mm 2 mps 739 mmHg 72%
    13:00 +12°C° 0 mm 2 mps 739 mmHg 70%
    14:00 +12°C° 0 mm 2 mps 740 mmHg 67%
    15:00 +10°C° 0 mm 2 mps 740 mmHg 71%
    16:00 +9°C° 0 mm 2 mps 741 mmHg 74%
    17:00 +9°C° 0 mm 2 mps 741 mmHg 77%
    18:00 +8°C° 0 mm 2 mps 741 mmHg 79%
    19:00 +7°C° 0 mm 2 mps 742 mmHg 81%
    20:00 +7°C° 0 mm 2 mps 743 mmHg 83%
    21:00 +6°C° 0 mm 2 mps 743 mmHg 83%
    22:00 +6°C° 0 mm 2 mps 743 mmHg 84%
    23:00 +7°C° 0 mm 1 mps 744 mmHg 85%

    20 Noviembre, Martes

    Tiempo Temperatura Precipitaciones Viento Presión Humedad
    00:00 +7°C° 0 mm 1 mps 744 mmHg 84%
    01:00 +7°C° 0 mm 1 mps 744 mmHg 84%
    02:00 +7°C° 0 mm 1 mps 744 mmHg 84%
    03:00 +7°C° 0 mm 1 mps 744 mmHg 84%
    04:00 +5°C° 0 mm 2 mps 744 mmHg 85%
    05:00 +5°C° 0 mm 2 mps 744 mmHg 86%
    06:00 +6°C° 0 mm 2 mps 744 mmHg 86%
    07:00 +6°C° 0 mm 2 mps 744 mmHg 86%
    08:00 +6°C° 0 mm 2 mps 744 mmHg 87%
    09:00 +7°C° 0.1 mm 3 mps 744 mmHg 86%
    10:00 +8°C° 0.1 mm 3 mps 744 mmHg 86%
    11:00 +9°C° 0.1 mm 3 mps 744 mmHg 86%
    12:00 +10°C° 0 mm 3 mps 743 mmHg 85%
    13:00 +10°C° 0 mm 3 mps 743 mmHg 85%
    14:00 +11°C° 0 mm 3 mps 742 mmHg 85%
    15:00 +11°C° 0.1 mm 3 mps 742 mmHg 87%
    16:00 +11°C° 0.1 mm 3 mps 742 mmHg 90%
    17:00 +12°C° 0.1 mm 2 mps 742 mmHg 93%
    18:00 +12°C° 0.1 mm 2 mps 741 mmHg 93%
    19:00 +11°C° 0.1 mm 3 mps 741 mmHg 94%
    20:00 +12°C° 0.1 mm 3 mps 741 mmHg 94%
    21:00 +12°C° 0.1 mm 3 mps 740 mmHg 94%
    22:00 +12°C° 0.1 mm 3 mps 740 mmHg 93%
    23:00 +13°C° 0.1 mm 4 mps 740 mmHg 92%

    21 Noviembre, Miércoles

    Tiempo Temperatura Precipitaciones Viento Presión Humedad
    00:00 +13°C° 0.2 mm 3 mps 739 mmHg 92%
    01:00 +13°C° 0.2 mm 3 mps 739 mmHg 92%
    02:00 +13°C° 0.2 mm 3 mps 739 mmHg 93%
    03:00 +13°C° 0.1 mm 3 mps 739 mmHg 93%
    04:00 +14°C° 0.1 mm 2 mps 738 mmHg 93%
    05:00 +14°C° 0.1 mm 2 mps 738 mmHg 93%
    06:00 +14°C° 0 mm 2 mps 738 mmHg 93%
    07:00 +13°C° 0 mm 2 mps 738 mmHg 93%
    08:00 +13°C° 0 mm 2 mps 739 mmHg 94%
    09:00 +14°C° 0 mm 2 mps 739 mmHg 87%
    10:00 +15°C° 0 mm 2 mps 739 mmHg 80%
    11:00 +17°C° 0 mm 2 mps 740 mmHg 73%
    12:00 +18°C° 0 mm 1 mps 740 mmHg 68%
    13:00 +19°C° 0 mm 1 mps 739 mmHg 64%
    14:00 +20°C° 0 mm 1 mps 739 mmHg 59%
    15:00 +18°C° 0 mm 1 mps 740 mmHg 63%
    16:00 +16°C° 0 mm 1 mps 740 mmHg 67%
    17:00 +15°C° 0 mm 1 mps 740 mmHg 72%
    18:00 +14°C° 0 mm 1 mps 740 mmHg 74%
    19:00 +14°C° 0 mm 1 mps 741 mmHg 76%
    20:00 +13°C° 0 mm 1 mps 741 mmHg 78%
    21:00 +13°C° 0 mm 1 mps 742 mmHg 79%
    22:00 +12°C° 0 mm 1 mps 742 mmHg 80%
    23:00 +12°C° 0 mm 1 mps 742 mmHg 80%

    22 Noviembre, Jueves

    Tiempo Temperatura Precipitaciones Viento Presión Humedad
    00:00 +12°C° 0 mm 1 mps 743 mmHg 81%
    01:00 +11°C° 0 mm 1 mps 743 mmHg 82%
    02:00 +11°C° 0 mm 1 mps 743 mmHg 83%
    03:00 +11°C° 0 mm 1 mps 743 mmHg 84%
    04:00 +11°C° 0 mm 1 mps 744 mmHg 85%
    05:00 +10°C° 0 mm 1 mps 744 mmHg 86%
    06:00 +10°C° 0 mm 1 mps 744 mmHg 87%
    07:00 +10°C° 0 mm 1 mps 745 mmHg 88%
    08:00 +10°C° 0 mm 1 mps 745 mmHg 88%
    09:00 +11°C° 0.1 mm 1 mps 745 mmHg 85%
    10:00 +11°C° 0.1 mm 1 mps 746 mmHg 81%
    11:00 +12°C° 0.1 mm 2 mps 746 mmHg 77%
    12:00 +12°C° 0.1 mm 2 mps 746 mmHg 76%
    13:00 +12°C° 0.1 mm 2 mps 746 mmHg 75%
    14:00 +12°C° 0.1 mm 2 mps 746 mmHg 73%
    15:00 +12°C° 0.1 mm 2 mps 746 mmHg 75%
    16:00 +10°C° 0.1 mm 2 mps 747 mmHg 77%
    17:00 +10°C° 0.1 mm 2 mps 747 mmHg 79%
    18:00 +9°C° 0 mm 2 mps 747 mmHg 80%
    19:00 +9°C° 0 mm 2 mps 748 mmHg 80%
    20:00 +8°C° 0 mm 2 mps 748 mmHg 81%
    21:00 +8°C° 0 mm 2 mps 748 mmHg 82%
    22:00 +7°C° 0 mm 2 mps 748 mmHg 83%
    23:00 +7°C° 0 mm 2 mps 749 mmHg 83%
    Mostrar más